Showing default

VELA 1, 692

Orbit data source: Space-Track

VELA 1, 692 is a payload satellite owned by USAF SSD (US) in HEO that was launched on Thu, 17 Oct 1963 UTC via an ATLAS AGENA D launch vehicle from the Air Force Eastern Test Range (AFETR). Payload-class satellites include a variety of spacecraft equipped with specific instruments for various scientific and technological missions. These include communications satellites like Starlink; space stations such as the ISS; scientific satellites like the Hubble; Earth observation satellites from companies like Planet Labs, Umbra, and HawkEye 360; GPS; miniature CubeSats for education and research; and military/defense satellites.

Loading next visibility...
Identifier
692, 1963-039C
Orbit
HEO
Country
Flag of USUS
Related business
Manufacturer
TRW
Mission
Spacecraft
Bus & Motor
VELA, BE3A
Mass
~207 kg wet, 115 kg dry
Launch date (UTC)
1963-10-17 (62 years ago)
Launch vehicle
ATLAS AGENA D
Launch site
Air Force Eastern Test Range (AFETR)
Object type
Payload
Rocket body
Debris
Shape & HBR
Unknown
Radar Cross Section
Large (>1 m²)

Expand to show TLE details & history
Last TLE update: 7 months ago

TLE from 7 months ago
0 VELA 1
1 00692U 63039C   25231.55172954 -.00000605  00000-0  00000-0 0  9991
2 00692  27.9818  45.8257 5578653 215.3524   0.0919  0.22046177 12502
Epoch: 2025-08-19T13:14Z
TLE epoch observation values (Epoch: 2025-08-19T13:14:29.432Z)
Latitude
-13.67696°
Longitude
86.45435°
Altitude
45,613.377 km
Speed
3.448 km/s
True Right ascension
16h 52m 52s
True Declination
-13° 39' 58"
Sunlit
Object was in daylight at epoch
Visualization orbit readout
Latitude
Unknown
Longitude
Unknown
Altitude
Unknown
Speed
Unknown
Apparent Right ascension
Unknown
Apparent Declination
Unknown
Sunlit
N/A
Visualization observer readout
Local Sidereal Time
00:54:17
Azimuth
Unknown
Elevation
Unknown
Doppler factor
Unknown
Orbital elements
Apogee altitude
173,942.247 km
Perigee altitude
44,798.238 km
Semi-major axis
115,748.38 km
Eccentricity
0.55787
Inclination
27.9818°
RAAN
45.8257°
Arg. of periapsis
215.3524°
True anomaly
0.39016°
Mean anomaly
0.0919°
Eccentric anomaly
0.20785°
Mean motion
0.05512 °/min
Orbital period
6,531.78 mins
BSTAR
0
Loading maneuver chart data...
Computing Atmospheric mass density...
Loading historical data...
Loading historical data...
Loading historical data...
Loading historical data...
Loading historical data...
Loading historical data...
Loading historical data...
Other satellites on launch #39 in the year 1963 (1963-10-17 UTC)

Documentation

Showing up to 5 results
|